Location: Ottawa
(45.4167°N, 75.7000°W)
Time: 09:41:19
(UTC-04:00)

Envisat - Pass Details

Date: 16 October 2017
Orbit: 764 x 766 km, 98.2° (Epoch: 23 October)

Event Time Altitude Azimuth Distance (km) Brightness Sun altitude
Exits shadow 19:06:03 12° 77° (ENE) 2,169 4.7 -9.7°
Maximum altitude 19:07:40 14° 57° (ENE) 2,060 4.7 -10.0°
Drops below altitude 10° 19:10:07 10° 28° (NNE) 2,311 5.2 -10.4°
Sets 19:13:34 0° 3° (N) 3,243 6.2 -11.0°
